STARLINK-3831, 52332

Orbit data source: Space-Track

STARLINK-3831, 52332 is a payload satellite owned by SpaceX/Seattle (US) in LEO that was launched on Fri, 29 Apr 2022 UTC via an FALCON 9 launch vehicle from the Air Force Eastern Test Range (AFETR). Payload-class satellites include a variety of spacecraft equipped with specific instruments for various scientific and technological missions. These include communications satellites like Starlink; space stations such as the ISS; scientific satellites like the Hubble; Earth observation satellites from companies like Planet Labs, Umbra, and HawkEye 360; GPS; miniature CubeSats for education and research; and military/defense satellites.

Loading next visibility...
Identifier
52332, 2022-045B
Orbit
LEO
Last TLE update
13 hours ago
Origin
Manufacturer
SpaceX/Seattle
Mission
Operational Commercial Communications
Bus & Motor
STARLINK, Unknown motor
Mass
297 kg wet, ~275 kg dry
Launch date (UTC)
2022-04-29 (3 years ago)
Launch vehicle
FALCON 9
Launch site
Air Force Eastern Test Range (AFETR)
Object type
Payload
Rocket body
Debris
Shape & HBR
Box + 1 Pan, 4.5 m
Radar Cross Section
11.087 m², Large (>1 m²)

Expand to show TLE details & history

TLE from 13 hours ago
0 STARLINK-3831
1 52332U 22045B   25210.96040973 -.00000427  00000-0 -87566-5 0  9998
2 52332  53.2174 129.0005 0001488  84.6738 275.4423 15.08837684182012
Epoch: 2025-07-29T23:02Z
TLE epoch observation values (Epoch: 2025-07-29T23:02:59.4Z)
Latitude
-0.00011°
Longitude
-164.59357°
Altitude
540.55 km
Speed
7.593 km/s
True Right ascension
08h 36m 00s
True Declination
0° 00' 00"
Sunlit
Object was in daylight at epoch
Visualization orbit readout
Latitude
38.7163°
Longitude
-130.42974°
Altitude
542.238 km
Speed
7.597 km/s
Apparent Right ascension
12h 08m 32s
Apparent Declination
1° 23' 47"
Sunlit
Object is in daylight
Visualization observer readout
Local Sidereal Time
01:32:38
Azimuth
30.151° NE
Elevation
-44.433°
Doppler factor
1
Orbital elements
Apogee altitude
541.025 km
Perigee altitude
538.966 km
Semi-major axis
6,918.132 km
Eccentricity
0.00015
Inclination
53.2174°
RAAN
129.0005°
Arg. of periapsis
84.6738°
True anomaly
275.42533°
Mean anomaly
275.4423°
Eccentric anomaly
275.43381°
Mean motion
3.7719 °/min
Orbital period
95.44 mins
BSTAR
-0.0000087566
Loading maneuver chart data...
Loading SW <> Apogee altitude chart data...
Loading historical data...
Loading historical data...
Loading historical data...
Loading historical data...
Loading historical data...
Loading historical data...
Loading historical data...
|